YACHTS Weather Reports


time (UTC)temp
C
wind
direction
speed
KPH
gust
KPH
rain 1hr
cm
rain 24hr
cm
rain mn
cm
humidity
%
barometer
mb
20260901032205 14 0 0.0 0.0 0.00 0.00 0.00 91 1011.0
20260901031138 14 0 0.0 0.0 0.00 0.00 0.00 91 1011.0
20260901030625 13 0 0.0 0.0 0.00 0.00 0.00 91 1010.9
20260901030113 13 0 0.0 0.0 0.00 0.00 0.00 91 1010.8
20260901025559 14 0 0.0 0.0 0.00 0.00 0.00 91 1010.7
20260901025046 14 0 0.0 0.0 0.00 0.00 0.00 91 1010.8
20260901024534 13 0 0.0 0.0 0.00 0.00 0.00 91 1010.8
20260901024020 13 0 0.0 9.7 0.00 0.00 0.00 91 1010.9
20260901023507 13 0 0.0 9.7 0.00 0.00 0.00 91 1010.9
20260901022954 13 0 3.2 9.7 0.00 0.00 0.00 90 1010.8
20260901022441 13 0 0.0 0.0 0.00 0.00 0.00 90 1010.8
20260901021928 13 175 0.0 11.3 0.00 0.00 0.00 90 1010.7
20260901021415 13 148 0.0 11.3 0.00 0.00 0.00 90 1010.9
20260901020902 13 207 6.4 11.3 0.00 0.00 0.00 90 1010.9
20260901020350 13 260 8.0 14.5 0.00 0.00 0.00 90 1010.9
20260901015836 13 285 3.2 14.5 0.00 0.00 0.00 90 1010.9
20260901015323 13 247 8.0 14.5 0.00 0.00 0.00 89 1010.9
20260901014811 13 0 0.0 14.5 0.00 0.00 0.00 89 1010.8
20260901014258 13 280 0.0 14.5 0.00 0.00 0.00 89 1010.7
20260901013744 13 264 8.0 14.5 0.00 0.00 0.00 89 1010.7
20260901012718 13 240 0.0 9.7 0.00 0.00 0.00 89 1010.6
20260901011652 13 0 0.0 8.0 0.00 0.00 0.00 89 1010.5
20260901011139 13 259 0.0 8.0 0.00 0.00 0.00 88 1010.5
20260901010626 14 0 0.0 12.9 0.00 0.00 0.00 88 1010.5
20260901010113 13 239 0.0 12.9 0.00 0.00 0.00 88 1010.5
20260901005600 14 235 1.6 12.9 0.00 0.00 0.00 87 1010.5
20260901005047 14 281 4.8 8.0 0.00 0.00 0.00 88 1010.5
20260901004534 14 0 0.0 4.8 0.00 0.00 0.00 88 1010.5
20260901004021 14 0 0.0 16.1 0.00 0.00 0.00 87 1010.5
20260901003508 15 0 4.8 16.1 0.00 0.00 0.00 87 1010.7
20260901002955 15 278 0.0 16.1 0.00 0.00 0.00 87 1010.7
20260901002442 15 275 6.4 12.9 0.00 0.00 0.00 87 1010.6
20260901001929 15 256 1.6 8.0 0.00 0.00 0.00 87 1010.5
20260901001416 15 194 0.0 4.8 0.00 0.00 0.00 87 1010.5
20260901000903 15 287 4.8 11.3 0.00 0.00 0.00 87 1010.6
20260901000350 15 261 4.8 11.3 0.00 0.00 0.00 86 1010.6
20260831235837 15 302 4.8 11.3 0.00 0.00 0.00 86 1010.7
20260831235324 15 266 0.0 11.3 0.00 0.00 0.00 87 1010.7
20260831234811 16 305 1.6 11.3 0.00 0.00 0.00 86 1010.7
20260831234259 16 270 4.8 11.3 0.00 0.00 0.00 85 1010.7
20260831233745 16 229 6.4 11.3 0.00 0.00 0.00 85 1010.7
20260831232206 16 299 3.2 9.7 0.00 0.00 0.00 86 1010.7
20260831231653 16 329 6.4 9.7 0.00 0.00 0.00 86 1010.7
20260831231140 16 0 0.0 9.7 0.00 0.00 0.00 87 1010.8
20260831230627 16 212 3.2 9.7 0.00 0.00 0.00 87 1010.9
20260831230114 16 253 6.4 9.7 0.00 0.00 0.00 88 1010.9
20260831225602 15 292 4.8 14.5 0.00 0.00 0.00 88 1010.9
20260831224535 14 193 4.8 14.5 0.00 0.00 0.00 87 1011.0
20260831224022 15 280 1.6 14.5 0.00 0.00 0.00 87 1011.1
20260831223509 14 254 6.4 14.5 0.00 0.00 0.00 87 1011.0
20260831222956 14 294 4.8 14.5 0.00 0.00 0.00 87 1011.1
20260831222443 15 224 9.7 20.9 0.00 0.00 0.00 86 1011.1
20260831221930 15 242 9.7 20.9 0.00 0.00 0.00 86 1011.1
20260831221417 15 274 9.7 20.9 0.00 0.00 0.00 86 1011.1
20260831220904 15 238 8.0 16.1 0.00 0.00 0.00 86 1011.1
20260831220351 16 268 8.0 16.1 0.00 0.00 0.00 86 1011.1
20260831215838 16 235 8.0 14.5 0.00 0.00 0.00 86 1011.0
20260831215325 16 264 8.0 14.5 0.00 0.00 0.00 86 1011.0
20260831214813 16 266 11.3 19.3 0.00 0.00 0.00 86 1011.0
20260831214259 16 268 8.0 19.3 0.00 0.00 0.00 86 1011.0
20260831213746 16 271 11.3 19.3 0.00 0.00 0.00 85 1011.0
20260831213233 16 270 9.7 14.5 0.00 0.00 0.00 85 1011.0
20260831212720 16 253 3.2 14.5 0.00 0.00 0.00 86 1010.9
20260831212207 16 288 6.4 14.5 0.00 0.00 0.00 86 1010.9
20260831211654 16 285 9.7 16.1 0.00 0.00 0.00 86 1010.8
20260831211141 16 291 4.8 16.1 0.00 0.00 0.00 86 1010.8
20260831210628 16 266 4.8 16.1 0.00 0.00 0.00 87 1010.8
20260831210115 16 254 8.0 14.5 0.00 0.00 0.00 86 1010.8
20260831205049 16 277 3.2 16.1 0.00 0.00 0.00 88 1010.9
20260831204536 15 275 6.4 16.1 0.00 0.00 0.00 87 1010.9
20260831204023 15 277 4.8 16.1 0.00 0.00 0.00 87 1011.0
20260831202959 15 0 4.8 14.5 0.00 0.00 0.00 88 1011.0
20260831202444 14 261 4.8 12.9 0.00 0.00 0.00 88 1011.0
20260831201931 15 238 6.4 17.7 0.00 0.00 0.00 88 1011.0
20260831200905 15 275 4.8 17.7 0.00 0.00 0.00 88 1011.1
20260831200352 15 287 9.7 16.1 0.00 0.00 0.00 89 1011.1
20260831195839 14 236 9.7 14.5 0.00 0.00 0.00 88 1011.1
20260831194352 14 288 9.7 14.5 0.00 0.00 0.00 88 1011.0
20260831194300 14 288 9.7 14.5 0.00 0.00 0.00 88 1011.0
20260831193748 14 305 9.7 14.5 0.00 0.00 0.00 89 1011.0
20260831193234 14 310 6.4 14.5 0.00 0.00 0.00 89 1011.0
20260831192721 14 288 11.3 14.5 0.00 0.00 0.00 88 1010.9
20260831192208 15 284 11.3 12.9 0.00 0.00 0.00 88 1010.9
20260831191655 15 291 8.0 12.9 0.00 0.00 0.00 88 1010.8
20260831191142 16 305 9.7 12.9 0.00 0.00 0.00 88 1010.8
20260831190629 15 292 8.0 11.3 0.00 0.00 0.00 89 1010.8
20260831190116 15 295 9.7 11.3 0.00 0.00 0.00 89 1010.8
20260831185603 15 308 3.2 11.3 0.00 0.00 0.00 89 1010.9
20260831185050 15 287 8.0 9.7 0.00 0.00 0.00 89 1011.0
20260831184537 16 292 8.0 12.9 0.00 0.00 0.00 89 1011.0
20260831184024 16 298 8.0 12.9 0.00 0.00 0.00 89 1011.1
20260831183511 16 305 8.0 12.9 0.00 0.00 0.00 89 1011.1
20260831183000 16 285 0.0 11.3 0.00 0.00 0.00 91 1011.2
20260831182445 16 268 0.0 11.3 0.00 0.00 0.00 91 1011.2
20260831180353 15 303 6.4 9.7 0.00 0.00 0.00 92 1011.3
20260831175840 15 250 3.2 9.7 0.00 0.00 0.00 92 1011.3
20260831174814 15 280 0.0 8.0 0.00 0.00 0.00 92 1011.3
20260831174301 15 298 0.0 8.0 0.00 0.00 0.00 93 1011.3
20260831173748 14 0 0.0 8.0 0.00 0.00 0.00 93 1011.3
20260831173235 13 298 0.0 8.0 0.00 0.00 0.00 93 1011.3
20260831172722 13 294 4.8 8.0 0.00 0.00 0.00 93 1011.3
20260831172210 13 308 3.2 8.0 0.00 0.00 0.00 93 1011.2
20260831171656 13 0 0.0 0.0 0.00 0.00 0.00 94 1011.2
20260831171143 13 0 0.0 0.0 0.00 0.00 0.00 94 1011.2
20260831170630 13 0 0.0 0.0 0.00 0.00 0.00 94 1011.3
20260831170117 13 0 0.0 0.0 0.00 0.00 0.00 94 1011.2
20260831165604 13 0 0.0 0.0 0.00 0.00 0.00 94 1011.1
20260831165051 13 0 0.0 0.0 0.00 0.00 0.00 94 1011.2
20260831164538 12 0 0.0 0.0 0.00 0.00 0.00 94 1011.1
20260831164025 12 0 0.0 0.0 0.00 0.00 0.00 94 1011.1
20260831163512 12 0 0.0 0.0 0.00 0.00 0.00 94 1011.2
20260831162446 12 0 0.0 0.0 0.00 0.00 0.00 94 1011.3
20260831161933 12 0 0.0 0.0 0.00 0.00 0.00 94 1011.3
20260831161420 12 0 0.0 0.0 0.00 0.00 0.00 95 1011.2
20260831160907 12 0 0.0 0.0 0.00 0.00 0.00 95 1011.3
20260831160354 12 0 0.0 0.0 0.00 0.00 0.00 95 1011.3
20260831155841 12 0 0.0 0.0 0.00 0.03 0.00 95 1011.3
20260831154815 11 0 0.0 0.0 0.00 0.03 0.00 95 1011.4
20260831154302 11 0 0.0 0.0 0.00 0.03 0.00 95 1011.4
20260831153749 11 0 0.0 0.0 0.00 0.03 0.00 95 1011.4
20260831153236 11 0 0.0 0.0 0.00 0.03 0.00 95 1011.4
20260831152723 11 0 0.0 0.0 0.00 0.03 0.00 95 1011.3
20260831152210 11 0 0.0 0.0 0.00 0.03 0.00 95 1011.4
20260831151657 11 0 0.0 0.0 0.00 0.03 0.00 95 1011.4
20260831151144 11 0 0.0 0.0 0.00 0.03 0.00 95 1011.4
20260831150631 11 0 0.0 0.0 0.00 0.03 0.00 95 1011.5
20260831150117 11 0 0.0 0.0 0.00 0.03 0.00 95 1011.5
20260831145606 11 0 0.0 0.0 0.00 0.03 0.00 95 1011.5
20260831145052 11 0 0.0 0.0 0.00 0.03 0.00 95 1011.5
20260831144539 11 0 0.0 0.0 0.00 0.03 0.00 95 1011.5
20260831144025 11 0 0.0 0.0 0.00 0.03 0.00 95 1011.4
20260831143513 11 0 0.0 0.0 0.00 0.03 0.00 95 1011.3
20260831143000 10 0 0.0 0.0 0.00 0.03 0.00 96 1011.2
20260831141933 10 0 0.0 0.0 0.00 0.03 0.00 95 1011.1
20260831141420 10 0 0.0 0.0 0.00 0.03 0.00 95 1011.1
20260831140907 10 0 0.0 0.0 0.00 0.03 0.00 96 1011.0
20260831140354 10 0 0.0 0.0 0.00 0.03 0.00 96 1011.0
20260831135841 10 0 0.0 0.0 0.00 0.03 0.00 95 1010.9
20260831135329 10 0 0.0 0.0 0.00 0.03 0.00 96 1010.9
20260831134815 10 0 0.0 0.0 0.00 0.03 0.00 96 1010.8
20260831134302 10 0 0.0 0.0 0.00 0.03 0.00 95 1010.9
20260831133749 10 0 0.0 0.0 0.00 0.03 0.00 95 1010.9
20260831133236 10 0 0.0 0.0 0.00 0.03 0.00 95 1010.9
20260831132723 10 0 0.0 0.0 0.00 0.03 0.00 95 1011.0
20260831132210 10 0 0.0 0.0 0.00 0.03 0.00 95 1011.0
20260831131657 10 0 0.0 0.0 0.00 0.03 0.00 95 1011.0
20260831131144 10 0 0.0 0.0 0.00 0.03 0.00 96 1011.1
20260831130631 10 0 0.0 0.0 0.00 0.03 0.00 95 1011.1
20260831130118 11 0 0.0 0.0 0.00 0.03 0.00 95 1011.1
20260831125605 10 0 0.0 0.0 0.00 0.03 0.00 95 1011.1
20260831125052 11 0 0.0 0.0 0.00 0.03 0.00 95 1011.1
20260831124539 11 0 0.0 0.0 0.00 0.03 0.00 95 1011.2
20260831124026 10 0 0.0 0.0 0.00 0.03 0.00 95 1011.2
20260831123513 10 0 0.0 0.0 0.00 0.03 0.00 95 1011.2
20260831123000 10 0 0.0 0.0 0.00 0.03 0.00 95 1011.2
20260831122448 10 0 0.0 0.0 0.00 0.03 0.00 95 1011.2
20260831121934 10 0 0.0 0.0 0.00 0.03 0.00 95 1011.3
20260831121421 10 0 0.0 0.0 0.00 0.03 0.00 95 1011.4
20260831120908 10 0 0.0 0.0 0.00 0.03 0.00 95 1011.4
20260831120356 10 0 0.0 0.0 0.00 0.03 0.00 95 1011.4
20260831114817 11 0 0.0 0.0 0.00 0.03 0.00 94 1011.5
20260831114304 11 0 0.0 0.0 0.00 0.03 0.00 95 1011.5
20260831113750 11 0 0.0 0.0 0.00 0.03 0.00 94 1011.5
20260831113237 11 0 0.0 0.0 0.00 0.03 0.00 95 1011.5
20260831112724 11 0 0.0 0.0 0.00 0.03 0.00 94 1011.6
20260831112211 11 0 0.0 0.0 0.00 0.03 0.00 94 1011.7
20260831111658 11 0 0.0 0.0 0.00 0.03 0.00 95 1011.7
20260831111145 11 0 0.0 0.0 0.00 0.03 0.00 94 1011.6
20260831110632 10 0 0.0 0.0 0.00 0.03 0.00 94 1011.6
20260831110119 10 0 0.0 0.0 0.00 0.03 0.00 94 1011.6
20260831105606 10 0 0.0 0.0 0.00 0.03 0.00 94 1011.8
20260831104540 10 0 0.0 0.0 0.00 0.03 0.00 94 1011.6
20260831104027 11 0 0.0 0.0 0.00 0.03 0.00 94 1011.7
20260831103514 11 0 0.0 0.0 0.00 0.03 0.00 94 1011.6
20260831103001 11 0 0.0 0.0 0.00 0.03 0.00 94 1011.5
20260831102448 11 0 0.0 0.0 0.00 0.03 0.00 94 1011.5
20260831101935 11 0 0.0 0.0 0.00 0.03 0.00 94 1011.5
20260831101422 11 0 0.0 0.0 0.00 0.03 0.00 94 1011.5
20260831100909 11 0 0.0 0.0 0.00 0.03 0.00 94 1011.5
20260831100357 11 0 0.0 0.0 0.00 0.03 0.00 94 1011.6
20260831095843 11 0 0.0 0.0 0.00 0.03 0.00 94 1011.8
20260831094817 11 0 0.0 0.0 0.00 0.03 0.00 94 1011.8
20260831094304 11 0 0.0 0.0 0.00 0.03 0.00 94 1011.8
20260831093751 10 0 0.0 0.0 0.00 0.03 0.00 94 1011.9
20260831093238 10 0 0.0 0.0 0.00 0.03 0.00 94 1012.0
20260831092725 11 0 0.0 0.0 0.00 0.03 0.00 94 1012.0
20260831092212 11 0 0.0 0.0 0.00 0.03 0.00 94 1012.1
20260831091659 11 0 0.0 0.0 0.00 0.03 0.00 93 1012.1
20260831091146 11 0 0.0 0.0 0.00 0.03 0.00 93 1012.2
20260831090633 11 0 0.0 0.0 0.00 0.03 0.00 94 1012.2
20260831090120 11 0 0.0 0.0 0.00 0.03 0.00 93 1012.2
20260831085658 11 0 0.0 0.0 0.00 0.03 0.00 93 1012.3
20260831085607 11 0 0.0 0.0 0.00 0.03 0.00 93 1012.3
20260831084657 11 0 0.0 0.0 0.00 0.03 0.00 93 1012.4
20260831084541 11 0 0.0 0.0 0.00 0.03 0.00 93 1012.4
20260831084028 11 0 0.0 0.0 0.00 0.03 0.00 93 1012.4
20260831083633 11 0 0.0 0.0 0.00 0.03 0.00 93 1012.5
20260831083515 11 0 0.0 0.0 0.00 0.03 0.00 93 1012.5
20260831083002 11 0 0.0 0.0 0.00 0.03 0.00 93 1012.5
20260831082449 11 0 0.0 0.0 0.00 0.03 0.00 93 1012.5
20260831081936 11 0 0.0 0.0 0.00 0.03 0.00 93 1012.7
20260831081423 11 0 0.0 0.0 0.00 0.03 0.00 93 1012.7
20260831080910 11 0 0.0 0.0 0.00 0.03 0.00 93 1012.8
20260831075844 11 0 0.0 0.0 0.00 0.03 0.00 93 1012.9
20260831074818 11 0 0.0 0.0 0.00 0.03 0.03 93 1012.9
20260831074305 11 0 0.0 0.0 0.00 0.03 0.03 93 1013.0
20260831073752 11 0 0.0 0.0 0.00 0.03 0.03 93 1012.9
20260831073239 11 0 0.0 0.0 0.00 0.03 0.03 92 1013.1
20260831072213 11 0 0.0 0.0 0.00 0.03 0.03 92 1013.1
20260831071700 11 0 0.0 0.0 0.00 0.03 0.03 92 1013.1
20260831071147 11 0 0.0 0.0 0.00 0.03 0.03 92 1013.2
20260831070634 11 0 0.0 0.0 0.00 0.03 0.03 92 1013.1
20260831070121 11 0 0.0 0.0 0.00 0.03 0.03 92 1013.3
20260831065608 11 0 0.0 0.0 0.00 0.03 0.03 92 1013.4
20260831065055 11 0 0.0 0.0 0.00 0.03 0.03 92 1013.4
20260831064542 11 0 0.0 0.0 0.00 0.03 0.03 92 1013.5
20260831064029 11 0 0.0 0.0 0.00 0.03 0.03 92 1013.4
20260831063003 11 0 0.0 0.0 0.00 0.03 0.03 92 1013.6
20260831062450 11 0 0.0 0.0 0.00 0.03 0.03 91 1013.6
20260831061424 11 0 0.0 0.0 0.00 0.03 0.03 91 1013.7
20260831060911 11 0 0.0 0.0 0.00 0.03 0.03 91 1013.8
20260831060358 11 0 0.0 0.0 0.00 0.03 0.03 91 1013.8
20260831055845 11 0 0.0 0.0 0.00 0.03 0.03 91 1013.9
20260831054819 11 0 0.0 0.0 0.00 0.03 0.03 90 1014.0
20260831054306 11 0 0.0 0.0 0.00 0.03 0.03 90 1014.1
20260831053753 11 0 0.0 0.0 0.00 0.03 0.03 90 1014.2
20260831053240 12 0 0.0 0.0 0.00 0.03 0.03 90 1014.2
20260831052729 12 0 0.0 0.0 0.00 0.03 0.03 90 1014.3
20260831052214 12 0 0.0 0.0 0.00 0.03 0.03 90 1014.3
20260831051701 12 0 0.0 0.0 0.00 0.03 0.03 89 1014.3
20260831051148 12 0 0.0 0.0 0.00 0.03 0.03 89 1014.4
20260831050635 12 0 0.0 0.0 0.00 0.03 0.03 89 1014.4
20260831050122 12 0 0.0 0.0 0.00 0.03 0.03 89 1014.5
20260831045609 12 0 0.0 0.0 0.00 0.03 0.03 88 1014.5
20260831045056 12 0 0.0 0.0 0.00 0.03 0.03 88 1014.5
20260831044543 12 0 0.0 0.0 0.00 0.03 0.03 88 1014.5
20260831044030 12 0 0.0 0.0 0.00 0.03 0.03 87 1014.6
20260831043517 12 0 0.0 0.0 0.00 0.03 0.03 87 1014.6
20260831043004 12 0 0.0 0.0 0.00 0.03 0.03 87 1014.6
20260831042451 12 0 0.0 0.0 0.00 0.03 0.03 87 1014.7
20260831041938 13 0 0.0 0.0 0.00 0.03 0.03 86 1014.7
20260831041425 13 0 0.0 0.0 0.00 0.03 0.03 86 1014.7
20260831040912 13 0 0.0 0.0 0.00 0.03 0.03 86 1014.7
20260831040359 13 0 0.0 0.0 0.00 0.03 0.03 85 1014.8
20260831035846 13 0 0.0 0.0 0.00 0.03 0.03 85 1014.8
20260831035335 13 0 0.0 0.0 0.00 0.03 0.03 85 1014.7
20260831034820 14 0 0.0 0.0 0.00 0.03 0.03 84 1014.7
20260831034307 13 0 0.0 0.0 0.00 0.03 0.03 84 1014.7
20260831033754 14 0 0.0 0.0 0.00 0.03 0.03 84 1014.6
20260831033241 14 0 0.0 9.7 0.00 0.03 0.03 84 1014.6
20260831032728 14 0 0.0 9.7 0.00 0.03 0.03 84 1014.7